Theta_e
337 340 337 338 344 346 345 342 342 343 348 347 345 344 343 344 345 347 348 349 350 347 344 342 340 339 337 338 343 343 342 340 344 341 339 337 339 343 346 347 345 346 348
335 339 339 338 342 342 344 341 340 343 346 347 346 346 346 347 348 348 347 347 348 345 346 344 342 340 338 338 342 342 340 338 337 338 333 329 334 340 343 345 346 345 348
333 335 336 337 339 338 339 341 344 347 348 348 348 346 348 346 347 345 346 347 348 346 348 346 343 344 342 341 340 344 340 337 343 343 336 329 325 329 338 339 340 345 347
334 334 334 333 336 338 343 345 347 347 348 349 347 344 345 339 342 344 345 346 350 349 347 345 344 344 346 344 343 347 342 342 340 341 344 340 335 328 326 334 338 335 340
335 335 334 334 330 341 343 345 346 347 349 348 348 346 343 342 344 343 343 343 345 348 348 346 344 342 344 346 346 345 344 344 342 339 338 337 335 336 330 327 329 337 341
334 335 337 338 333 340 345 348 347 346 349 349 349 347 342 342 345 343 340 341 343 346 348 349 347 347 346 345 346 347 347 344 344 340 338 334 331 331 331 329 330 330 338
332 333 334 337 339 341 343 347 347 347 349 350 349 345 342 345 345 344 343 343 344 346 346 347 347 347 348 348 348 347 346 347 343 343 341 341 337 338 334 331 326 327 335
332 332 335 338 339 342 345 349 348 346 349 348 349 348 345 350 349 350 345 347 347 347 349 349 348 348 350 350 348 347 346 345 348 346 344 342 340 341 337 330 326 327 329
331 332 335 338 338 340 344 349 348 348 350 353 351 351 350 351 351 352 351 350 350 350 348 349 350 350 350 350 349 347 346 346 345 347 347 344 344 340 340 334 333 332 325
331 333 333 335 339 342 346 351 349 346 337 344 350 353 352 352 350 349 350 350 350 349 347 350 349 348 349 349 349 347 347 345 346 347 344 344 344 343 341 341 337 336 333
329 334 336 337 340 343 347 350 348 332 331 336 348 352 351 352 353 353 352 351 351 350 349 350 350 349 348 348 347 345 345 345 345 346 345 343 344 343 342 342 342 341 337
329 333 336 339 341 342 343 344 345 343 348 350 349 347 348 349 347 345 348 349 349 350 349 349 348 348 348 349 348 347 348 345 344 344 345 343 349 344 342 341 340 340 339
329 331 336 336 330 340 342 344 340 343 340 340 339 340 334 333 333 335 335 339 339 340 341 345 345 345 347 347 348 347 347 347 345 345 344 344 343 342 342 343 342 341 344
330 336 336 337 336 338 338 336 334 333 333 333 333 334 335 337 337 337 338 338 338 338 338 339 339 341 343 345 346 347 346 346 347 347 346 346 345 344 343 341 342 342 341
337 336 334 334 335 335 335 335 334 334 334 334 335 335 335 335 334 334 334 334 335 335 335 335 335 337 340 339 336 339 342 343 343 345 346 347 347 345 343 344 342 341 340
336 334 335 334 335 335 334 335 334 334 334 333 333 333 333 332 331 331 331 332 332 334 334 334 334 334 340 333 334 336 332 334 334 334 338 341 344 344 341 338 339 342 341
335 334 335 334 335 335 335 333 334 333 332 332 333 332 331 330 330 330 330 328 328 329 329 330 332 332 331 329 330 334 330 331 332 332 333 335 340 337 336 336 337 337 336
335 336 336 336 336 336 335 334 333 332 330 330 330 329 327 326 326 325 323 324 325 323 323 325 325 326 330 328 326 330 327 327 329 332 333 333 334 335 335 334 333 335 339
336 337 338 336 335 334 334 333 330 330 330 327 325 325 324 323 321 319 320 321 320 319 320 322 322 322 326 324 323 325 324 325 325 329 331 331 331 328 325 326 324 325 328
335 338 339 335 333 331 330 329 327 326 325 324 323 324 323 321 320 320 320 320 319 319 321 321 322 324 323 317 316 320 323 320 323 326 328 327 322 318 318 322 322 321 324
329 332 334 331 329 328 329 326 325 322 324 324 323 321 320 320 318 317 318 322 323 322 324 323 327 325 321 314 314 314 316 317 318 320 322 327 318 314 313 315 318 321 325
332 333 330 328 327 330 326 324 322 322 322 320 319 318 318 321 321 318 318 319 319 319 317 319 319 323 318 313 312 312 312 314 314 315 318 318 314 310 311 314 317 316 318
331 330 327 325 327 327 326 322 320 321 319 317 316 316 317 318 317 317 316 313 316 316 312 312 314 315 312 311 310 310 309 311 310 310 313 312 309 309 313 316 318 318 320
328 328 325 323 322 324 324 320 318 318 316 314 314 314 314 315 314 316 318 318 316 310 310 311 310 311 306 304 303 304 303 307 307 309 307 309 311 313 315 318 320 322 322
327 325 323 322 321 321 318 317 317 316 314 314 314 314 314 313 312 314 313 314 314 312 311 309 308 303 302 303 300 299 303 304 306 305 307 311 312 313 315 316 319 322 325
325 323 322 321 319 318 316 315 315 314 313 313 312 312 312 311 311 311 311 310 306 306 304 305 305 305 303 300 299 299 299 300 302 308 308 307 307 307 308 308 309 312 313
Wind_Speed
5 5 6 8 8 7 7 7 7 7 5 3 3 2 4 3 3 3 5 6 5 5 5 4 4 3 2 2 4 0 2 2 1 2 3 2 1 5 5 4 5 4 6
6 6 7 7 6 6 6 7 8 8 5 4 3 3 3 3 2 4 5 5 5 6 4 5 5 5 2 3 3 1 1 1 3 1 2 2 2 1 2 2 5 9 6
11 8 9 8 6 6 9 9 6 6 6 6 2 1 2 2 0 1 2 3 5 5 5 5 5 4 3 3 3 3 4 2 1 2 4 2 3 1 1 1 3 4 6
8 8 11 8 8 9 7 8 7 7 6 7 5 6 4 3 2 3 2 3 5 5 6 6 5 5 4 4 3 3 3 3 3 1 1 2 2 2 1 2 3 4 4
13 13 12 10 7 7 7 6 6 7 7 6 6 4 3 3 2 2 4 5 4 5 6 6 6 6 4 4 5 4 4 3 3 2 2 2 2 1 1 1 2 1 3
12 12 11 8 6 5 6 6 7 7 6 7 6 7 7 5 4 3 4 4 4 4 6 6 5 5 5 5 5 5 5 5 3 3 3 4 3 3 2 2 3 2 3
11 10 9 8 7 8 7 7 8 7 7 7 7 8 7 6 7 5 4 4 3 3 6 6 6 5 5 5 5 5 5 4 3 5 4 4 4 3 3 1 1 3 3
11 11 12 10 9 9 9 12 10 7 7 8 8 6 7 5 5 5 4 4 4 5 5 7 6 6 6 5 5 4 4 5 4 6 4 3 4 4 4 4 4 1 3
12 13 9 10 7 8 9 11 9 8 10 9 6 6 6 6 5 6 4 4 4 3 6 6 6 6 6 6 5 4 5 4 4 5 5 4 3 3 4 4 3 4 2
14 12 11 9 8 8 9 9 8 8 3 5 4 6 6 4 4 3 4 2 2 3 4 6 6 5 6 6 6 5 5 5 4 4 5 4 3 4 4 4 4 4 4
14 14 12 13 8 8 9 8 7 6 6 4 3 4 3 4 4 1 2 2 1 2 3 4 5 5 6 5 5 6 6 6 5 5 6 7 4 3 3 3 4 4 4
10 13 12 14 12 10 8 5 6 4 2 4 5 5 3 3 4 4 6 4 3 3 1 2 3 4 4 5 6 6 6 6 6 7 5 7 4 6 5 4 6 5 4
2 9 13 16 15 11 11 4 2 6 5 6 6 5 6 6 5 4 5 6 6 6 6 4 2 2 3 4 4 5 6 6 6 6 6 6 6 6 4 5 5 4 4
5 8 11 9 8 10 9 8 6 6 6 7 7 6 6 6 6 6 6 6 5 5 5 5 5 5 4 3 4 5 5 6 5 5 5 6 6 6 6 5 6 5 5
12 6 12 15 15 8 5 6 6 7 7 8 7 6 5 5 5 6 5 5 5 4 4 5 5 5 4 3 5 6 4 2 3 4 4 5 6 8 7 4 6 5 4
13 13 2 21 19 25 10 5 6 7 9 7 7 5 5 5 4 5 6 6 6 6 6 6 5 5 4 10 11 8 5 4 3 3 4 4 6 6 8 8 11 8 6
13 17 8 7 14 20 14 7 6 5 7 7 6 5 6 6 6 6 6 6 5 5 6 6 6 6 4 7 6 8 5 5 5 5 5 4 4 6 6 8 9 8 10
7 13 10 6 7 9 12 7 6 7 7 7 7 6 6 5 5 6 5 4 4 4 4 4 5 5 4 7 8 7 3 3 5 5 6 6 6 6 7 6 6 6 6
10 9 7 7 9 15 13 10 7 7 10 7 6 5 5 4 4 4 3 2 3 3 3 3 5 4 5 8 10 6 4 4 6 5 6 6 6 6 10 6 5 6 5
11 12 7 6 10 9 10 12 10 9 8 7 6 5 5 4 3 2 1 2 2 3 4 6 5 6 7 15 16 11 4 5 5 5 5 8 8 10 7 5 4 5 6
13 13 15 14 8 7 12 12 8 8 7 6 6 5 4 5 2 0 1 4 4 5 4 4 5 10 7 9 13 14 6 5 5 4 4 2 6 11 11 6 5 6 6
20 15 10 7 6 11 12 7 9 6 7 7 6 4 3 3 3 5 5 4 5 5 5 5 5 4 5 10 11 10 9 10 6 7 6 4 9 11 12 9 10 11 9
13 11 12 10 7 7 7 9 6 6 7 7 5 3 2 3 3 4 3 2 2 4 4 3 3 3 5 6 14 13 13 9 7 5 9 15 14 13 9 9 13 12 4
12 9 11 11 9 6 7 10 7 6 7 6 4 2 2 2 3 3 1 1 3 3 3 3 3 3 4 4 5 6 7 11 9 11 8 11 13 11 9 8 7 6 5
9 10 10 10 9 8 8 6 6 7 6 5 3 3 3 4 3 1 2 1 1 4 4 3 3 2 3 3 5 6 6 5 6 7 3 4 7 8 8 8 7 7 6
9 9 9 12 9 9 8 7 6 6 5 4 3 3 3 1 2 1 2 4 3 4 9 7 4 2 4 3 9 10 10 12 10 3 5 6 6 7 8 8 8 8 11
Wind_Direction
213 148 150 161 168 176 146 185 183 202 176 151 172 190 216 214 226 206 206 209 178 176 194 186 208 214 230 243 292 304 53 28 196 49 4 352 150 168 194 188 202 206 209
149 160 164 190 202 173 160 193 204 212 187 158 183 163 171 217 188 195 195 190 167 182 203 187 210 201 227 244 290 238 87 284 350 123 49 31 348 20 204 229 213 216 208
171 184 187 192 186 183 194 202 204 197 173 183 130 128 84 59 107 188 213 202 177 194 208 193 204 221 200 230 243 239 186 193 250 276 148 114 216 234 291 205 254 195 207
162 176 194 199 192 203 184 190 199 193 186 182 173 190 181 167 218 187 193 202 197 209 204 206 200 211 202 201 227 243 198 162 179 260 339 84 120 174 91 301 241 232 204
171 188 198 203 201 184 187 192 190 195 186 184 187 182 194 200 227 176 200 230 213 218 209 193 210 216 210 205 214 247 255 188 180 171 181 46 36 28 125 241 277 309 264
179 194 197 187 191 177 184 184 175 194 184 189 192 196 202 213 211 200 209 224 215 221 220 204 211 220 217 202 209 224 227 226 193 177 188 169 165 198 175 210 240 235 240
179 183 191 182 188 186 189 179 175 193 195 192 197 200 203 217 222 215 214 213 219 212 222 206 206 214 218 211 207 221 234 236 204 185 203 209 202 148 170 153 216 226 270
188 188 190 191 190 190 184 188 182 188 196 197 208 207 212 210 216 212 205 220 212 211 195 203 206 209 210 211 210 226 235 222 221 232 218 223 215 176 177 175 152 265 272
173 182 179 176 165 168 185 176 177 194 195 197 203 211 223 208 234 236 246 215 231 217 213 200 198 202 204 206 205 208 220 228 237 238 234 220 243 209 190 191 174 168 257
174 177 171 175 176 179 169 159 193 201 198 200 206 214 215 229 247 231 236 212 232 218 197 190 197 209 217 214 198 208 220 218 234 243 250 251 235 224 210 219 211 198 182
175 177 180 181 174 161 157 166 197 193 183 171 251 195 174 183 199 218 184 120 66 120 173 194 197 208 216 228 217 224 227 221 233 243 231 245 231 252 232 211 215 224 191
189 178 170 141 138 115 101 123 196 214 206 147 144 132 106 82 78 74 67 53 46 33 89 170 193 205 213 220 210 222 225 215 228 243 240 244 231 238 234 197 221 224 202
11 185 144 149 138 126 127 154 232 173 140 121 108 106 87 90 77 66 57 53 53 41 32 35 359 286 263 259 248 228 233 234 227 222 227 242 245 251 244 248 240 223 216
113 183 129 135 114 133 143 144 203 145 133 111 101 101 92 86 77 69 60 58 54 45 33 28 24 20 350 319 294 264 246 240 243 241 230 234 236 241 240 242 246 251 249
116 120 133 116 117 73 20 146 158 135 126 111 105 104 99 85 73 57 42 32 30 24 22 17 11 8 11 39 23 23 11 315 293 290 280 263 254 244 240 229 258 232 246
126 123 196 145 148 143 182 199 140 134 118 112 114 114 91 79 66 48 34 31 19 15 21 13 5 358 348 19 19 6 341 329 320 305 310 312 307 295 280 262 254 239 242
136 134 138 254 156 144 152 158 142 140 108 118 118 97 80 62 53 55 49 33 28 22 19 16 22 22 50 30 26 17 12 338 315 299 293 296 283 297 291 287 281 274 241
105 134 121 208 196 135 135 147 152 127 106 98 95 93 91 78 54 49 36 15 11 16 10 10 353 345 330 343 356 356 352 333 314 303 291 278 282 282 276 297 306 296 287
82 56 57 231 196 146 143 140 131 122 115 109 104 102 100 100 78 51 17 14 7 336 332 316 328 335 319 343 23 31 15 349 333 310 297 288 288 349 39 13 351 330 303
67 84 270 232 190 161 137 126 129 119 124 131 124 116 119 109 83 84 63 275 292 326 336 321 311 295 49 38 31 17 28 11 353 333 334 355 55 2 13 351 311 300 281
137 207 229 200 171 118 117 118 123 117 127 115 116 106 101 113 108 90 265 11 5 339 347 356 13 65 65 49 35 27 22 358 333 322 320 358 11 338 319 287 269 251 274
184 185 172 148 98 111 112 125 113 126 105 106 103 102 96 76 70 62 41 36 33 36 17 18 20 25 63 38 21 20 7 340 329 316 316 309 323 305 293 299 282 272 272
154 152 148 120 102 111 133 121 129 120 115 106 112 140 91 119 126 68 43 32 50 54 15 3 25 17 18 15 7 357 350 341 327 304 304 302 304 302 302 291 300 302 282
142 139 135 131 123 129 127 128 138 127 113 126 161 174 161 198 115 113 27 83 71 74 61 48 38 20 7 9 351 340 333 338 338 334 324 315 305 294 284 313 320 315 299
138 150 142 132 139 139 123 128 131 127 131 134 108 101 105 123 119 106 139 158 241 164 156 152 124 67 23 350 324 335 345 333 320 318 323 352 359 360 357 350 342 333 332
150 145 139 131 145 137 142 137 132 128 129 111 135 131 143 188 187 177 312 20 1 102 101 118 133 86 105 61 25 0 358 349 353 11 21 14 7 4 354 351 344 346 347